Theta_e
297 297 298 299 300 301 302 302 306 308 306 307 307 306 305 307 311 311 313 311 312 311 309 309 306 307 307 308 308 309 309 312 310 309 308 309 309 309 309 311 306 307 304 309
297 297 298 298 300 301 302 302 308 309 306 309 309 307 308 310 312 312 312 312 312 312 311 310 307 307 307 308 309 309 309 312 313 311 310 310 312 310 309 309 310 307 307 308
296 296 297 299 301 301 305 303 309 308 307 307 309 309 309 310 311 312 313 313 311 312 313 309 309 308 309 308 309 310 310 313 312 312 314 312 313 311 310 310 311 310 310 310
296 296 297 299 301 303 306 307 306 305 306 309 308 309 309 310 311 312 313 314 313 314 316 313 311 309 309 309 310 311 311 312 312 312 311 311 314 313 312 311 310 310 309 310
296 296 297 300 301 303 307 308 308 306 307 308 306 307 310 310 311 313 313 312 313 313 315 313 310 311 311 312 310 311 311 312 311 313 313 312 314 314 314 314 311 310 310 310
296 296 297 299 301 302 301 303 306 308 309 310 307 308 310 310 313 311 312 313 314 314 314 313 313 312 311 312 313 312 311 310 314 315 316 317 315 314 313 314 313 311 312 311
296 296 297 299 301 302 302 302 305 310 311 310 309 310 309 312 313 312 312 313 314 314 314 314 313 312 310 311 312 313 311 310 312 315 316 324 318 315 312 313 314 312 311 314
295 295 297 299 300 302 303 304 305 311 311 310 309 312 311 311 312 312 312 312 313 314 314 315 316 315 315 314 313 313 312 311 316 319 320 319 318 319 314 314 316 313 313 314
296 295 296 298 299 301 304 308 308 309 311 310 311 312 311 313 312 312 312 313 313 313 315 315 318 314 315 313 315 309 312 312 315 317 320 317 313 317 316 316 321 315 314 314
296 295 296 297 299 301 303 307 308 310 312 311 311 312 312 312 311 310 310 311 311 312 315 317 318 317 313 314 317 317 315 313 316 316 319 314 312 310 316 322 319 309 315 315
295 294 295 296 298 300 302 305 307 311 312 312 312 312 311 311 310 311 311 312 312 313 316 317 317 317 312 313 311 313 314 315 315 313 317 314 311 311 315 311 310 309 312 313
295 294 295 295 297 299 301 304 309 311 311 311 312 312 312 312 312 311 311 312 313 313 316 313 316 316 310 311 313 311 315 313 314 313 313 309 311 310 312 310 309 309 309 310
294 295 295 291 296 298 299 301 305 309 309 311 311 312 312 312 311 312 311 311 311 312 314 313 312 315 310 314 312 313 312 310 314 314 312 312 311 312 310 310 309 309 310 310
295 295 291 290 294 297 298 299 304 307 310 311 310 311 311 312 312 312 311 311 312 312 312 315 313 313 309 311 311 312 312 312 312 312 310 309 311 311 310 309 308 308 308 309
290 290 292 292 294 296 297 301 307 308 310 312 313 312 312 312 312 312 311 311 311 311 314 315 316 309 309 306 307 309 308 313 315 315 312 311 310 311 309 310 309 308 309 306
293 293 293 293 292 294 296 306 306 308 308 311 313 313 312 312 311 311 311 311 311 311 314 316 316 314 312 309 310 310 311 313 314 312 312 310 310 310 309 310 308 308 309 309
293 293 293 293 291 293 296 302 306 308 309 311 309 308 312 312 311 311 311 312 311 311 312 315 315 315 315 314 315 312 313 313 311 312 311 308 309 309 309 309 308 308 308 307
293 293 293 294 293 294 297 301 303 305 309 311 309 309 310 311 311 312 312 312 313 313 313 313 313 312 312 314 311 312 311 311 310 310 310 310 311 309 308 308 307 306 304 302
292 294 298 299 299 298 301 304 308 308 310 309 309 309 309 311 312 312 313 313 314 313 313 313 311 312 313 313 311 311 311 310 309 308 309 308 309 307 306 306 305 304 301 300
293 296 298 300 299 300 303 308 308 309 311 311 310 309 310 310 311 310 311 310 311 311 312 309 311 313 313 315 314 314 313 311 309 306 302 304 304 306 305 305 304 303 302 301
292 293 295 295 299 301 305 307 308 309 308 309 310 309 309 310 309 311 308 307 305 311 307 312 310 312 309 311 314 314 314 312 310 311 311 309 309 307 305 304 303 302 301 300
293 294 294 296 299 300 302 304 305 308 307 307 309 307 309 309 310 308 306 305 306 311 302 309 311 306 308 308 310 312 313 311 310 310 310 309 308 308 306 304 303 302 300 298
294 295 295 295 297 302 306 307 307 308 305 308 307 304 308 307 308 303 304 309 309 300 306 309 305 303 306 307 309 311 310 309 309 309 307 307 307 306 305 303 302 299 298 296
294 293 293 297 300 302 303 302 302 301 303 306 307 304 301 305 301 302 308 305 303 306 306 304 297 302 303 305 307 309 308 307 308 307 306 306 306 304 303 302 299 298 296 294
294 294 295 297 300 299 300 300 300 302 304 305 306 305 305 301 299 299 303 304 306 304 304 298 302 302 303 305 306 306 306 305 305 305 305 304 304 303 300 298 298 296 295 294
294 294 293 298 296 295 299 300 300 303 305 306 305 303 305 306 300 300 302 301 303 304 296 303 303 303 304 305 305 304 304 305 305 304 303 302 302 300 299 297 295 294 294 294
294 297 296 296 295 298 298 298 301 301 304 305 302 306 308 296 297 297 296 301 301 301 302 302 303 303 304 304 303 303 303 303 303 302 301 301 299 298 297 295 294 294 294 293
Wind_Speed
29 30 28 31 32 33 21 6 0 10 26 7 3 4 6 5 4 2 3 3 4 6 7 6 6 8 6 9 11 9 9 3 6 15 5 12 13 11 12 5 6 4 3 15
28 29 30 30 30 28 30 3 3 32 43 3 4 4 3 3 3 4 5 4 5 4 6 3 8 4 7 15 11 11 10 5 3 4 2 3 9 13 15 13 3 8 4 7
27 28 29 31 32 36 21 6 3 15 20 6 8 8 4 3 2 4 4 4 5 4 5 5 2 4 4 19 11 12 15 5 8 9 4 2 6 11 16 16 8 14 17 16
28 28 28 32 32 25 10 5 3 5 5 4 11 4 6 4 1 1 9 4 8 5 4 6 8 8 5 8 13 9 8 7 12 20 22 11 6 12 17 21 20 11 19 19
28 27 28 29 29 22 4 5 4 5 11 14 11 6 6 11 8 4 4 6 7 8 7 6 2 3 6 5 9 10 5 6 5 10 15 19 15 18 16 21 24 24 20 21
28 26 24 26 29 24 8 10 7 12 16 9 9 8 5 6 7 7 10 11 8 9 13 18 22 16 13 6 5 8 3 3 3 6 9 8 10 22 21 15 20 19 17 25
27 24 22 25 25 22 16 9 9 1 6 9 9 11 10 4 5 5 0 10 7 2 4 11 9 16 17 13 13 13 6 3 2 5 4 3 2 5 22 24 11 21 21 8
27 23 23 22 23 23 18 9 4 1 3 9 10 7 6 11 5 2 6 16 18 11 6 3 3 2 3 6 10 14 10 4 3 3 3 5 3 2 5 11 12 15 20 18
25 22 21 21 25 24 19 3 3 7 3 9 10 8 6 3 3 1 4 6 5 9 3 2 2 2 1 4 3 2 5 4 1 4 3 4 3 1 9 7 5 17 18 17
23 22 22 20 23 23 20 4 4 4 4 12 19 7 6 5 3 1 2 2 2 9 3 4 3 2 2 3 3 3 2 2 4 4 3 5 2 2 10 2 5 5 23 19
22 23 23 20 21 19 19 5 8 4 3 10 8 15 12 8 9 3 4 0 4 2 4 4 3 3 4 2 4 4 6 4 3 0 2 3 3 4 3 3 5 4 8 12
21 21 21 21 19 18 19 10 5 6 3 3 11 11 11 13 8 10 8 2 1 5 3 2 2 3 2 3 3 1 3 5 3 6 4 3 2 5 8 9 7 2 9 18
20 20 22 22 19 16 17 15 7 5 0 4 5 10 14 14 14 14 6 5 6 5 5 2 2 3 4 4 5 2 3 4 2 3 2 3 3 2 5 5 2 5 10 21
20 21 22 21 20 16 17 16 4 2 3 2 3 6 9 13 15 16 17 14 8 8 9 3 2 2 3 3 2 3 4 2 2 4 6 7 6 3 2 7 10 18 21 24
22 23 23 21 19 18 19 11 10 8 3 1 1 3 5 6 8 12 16 16 13 6 3 3 3 2 3 1 1 3 5 6 4 4 4 2 1 7 9 14 17 19 24 26
24 24 24 21 17 16 14 1 9 13 10 3 1 1 3 4 6 10 11 8 7 5 3 4 4 3 4 3 3 5 14 9 7 2 2 2 8 12 12 15 17 19 23 27
26 26 26 23 16 15 12 6 11 17 13 2 2 2 1 4 5 5 8 9 6 8 4 4 2 3 3 1 4 5 5 10 11 7 10 7 13 8 15 17 19 21 24 26
29 29 24 17 13 14 17 14 8 9 8 4 1 2 1 7 4 4 5 4 3 5 3 3 1 1 2 4 8 12 8 9 12 16 8 5 14 20 21 21 24 27 28 27
30 23 7 2 5 6 3 5 4 16 5 3 3 3 3 6 2 4 3 3 2 2 2 2 1 2 4 8 7 11 16 12 15 14 9 14 21 26 27 28 29 32 31 28
22 9 3 1 2 8 10 6 7 8 6 5 2 5 3 5 3 1 0 1 1 2 0 2 2 4 20 21 12 6 11 14 18 21 15 20 26 30 30 31 31 31 31 28
15 11 4 16 5 9 4 3 3 4 2 6 7 10 4 8 2 2 2 1 0 1 3 1 2 4 4 9 22 16 11 17 17 12 11 19 25 34 34 32 31 30 28 26
14 14 13 7 2 3 3 3 1 3 4 4 3 5 5 6 3 2 1 2 0 3 3 1 3 4 6 5 4 18 15 19 17 10 9 18 25 32 33 33 33 30 27 25
4 1 3 2 3 2 1 2 1 1 0 7 6 2 5 5 3 3 2 1 3 1 1 3 4 4 7 3 2 14 16 19 17 12 14 19 28 30 32 33 30 28 26 23
3 3 4 0 3 2 2 1 2 4 5 9 13 4 3 3 3 1 3 1 1 2 2 5 3 3 5 4 5 13 20 21 18 17 20 24 30 32 31 30 29 28 27 25
1 2 2 2 5 6 8 9 5 5 6 6 4 5 3 1 3 1 2 1 4 5 4 3 5 7 0 3 7 13 20 21 19 19 24 29 32 34 33 30 27 25 26 25
1 1 3 6 3 5 8 8 9 7 4 8 3 3 2 3 4 3 7 6 6 4 3 6 7 3 2 5 9 14 19 20 20 22 25 31 34 35 34 30 27 25 23 23
2 0 2 2 5 6 7 10 7 10 7 2 1 4 6 2 2 2 4 6 3 4 4 5 4 3 4 8 12 17 20 21 22 25 30 34 34 33 32 32 28 25 22 20
Wind_Direction
338 337 334 335 340 340 357 315 126 158 176 165 187 155 159 140 127 126 120 137 129 173 176 183 215 223 231 179 141 180 202 223 225 225 226 211 202 208 203 206 232 238 202 255
337 339 334 335 338 336 327 238 148 160 155 160 153 138 105 103 119 180 149 165 169 173 171 210 200 205 246 173 170 174 163 220 265 281 193 187 217 222 217 226 280 220 207 269
340 342 335 337 343 334 351 151 133 144 199 281 160 136 143 124 162 139 159 167 120 159 211 219 265 240 264 186 184 185 172 211 214 236 234 184 201 207 214 205 230 236 235 269
347 344 340 345 348 342 168 174 104 120 166 195 167 128 141 176 110 193 179 185 210 174 221 221 226 228 264 166 198 188 198 239 224 239 244 222 206 209 210 213 223 220 250 257
346 346 346 352 356 6 265 24 102 161 152 148 158 195 163 174 193 200 198 227 201 226 233 219 182 223 192 192 199 196 211 266 253 258 237 226 225 218 217 218 226 235 249 272
347 349 349 357 2 10 6 355 320 162 169 153 162 190 180 198 148 212 255 209 228 254 246 237 253 250 253 258 241 211 252 264 280 280 323 234 237 233 224 223 216 219 223 238
346 349 348 355 3 7 355 327 319 143 168 186 182 153 205 180 202 207 237 223 210 210 200 284 266 244 255 255 248 189 198 199 239 282 278 273 299 275 212 211 225 218 237 242
345 351 347 353 358 358 352 330 291 270 137 184 177 157 180 221 243 214 259 266 247 259 299 269 254 220 278 246 229 209 209 142 282 273 294 279 355 6 123 174 237 211 222 236
342 348 343 349 355 357 353 98 266 286 138 209 157 176 158 145 165 232 230 265 258 242 232 233 248 228 152 306 332 355 200 246 309 312 319 348 308 305 88 80 257 201 207 226
341 344 346 349 354 355 354 14 247 323 90 147 183 182 199 180 147 231 290 215 228 207 219 228 205 246 150 265 244 188 190 187 217 268 285 291 308 168 121 53 282 360 197 211
338 342 344 344 350 351 349 347 16 60 59 163 169 168 170 159 184 174 156 296 206 194 220 199 165 212 231 255 225 193 184 172 213 280 259 330 81 92 189 241 303 326 128 158
335 339 338 336 340 349 348 336 48 125 154 173 204 212 210 206 240 205 184 214 154 235 235 205 178 203 171 208 272 140 241 193 199 183 221 250 226 257 293 304 295 227 161 163
331 335 328 333 332 339 340 325 19 152 78 284 247 227 229 243 229 226 202 208 217 234 285 243 203 228 139 188 239 232 240 189 207 15 288 257 282 295 308 317 265 174 163 153
330 324 326 327 327 325 320 318 260 192 171 206 244 230 231 242 243 237 229 238 239 255 281 268 201 222 187 228 229 208 210 132 218 260 275 293 249 211 170 101 114 136 145 152
324 323 321 319 321 310 311 282 208 206 205 308 293 264 240 233 234 230 226 239 254 244 224 239 216 168 148 279 17 256 194 183 176 229 238 189 280 164 155 134 135 143 148 146
325 315 312 310 308 310 327 268 210 208 223 300 298 273 224 218 226 208 215 238 254 229 249 264 239 195 155 172 215 259 216 215 218 240 199 154 140 155 159 143 142 146 148 148
325 319 309 300 289 283 261 227 139 187 203 257 319 309 214 215 207 221 244 233 239 219 218 249 265 189 183 246 230 247 226 225 223 207 150 120 161 165 161 157 149 149 145 146
326 320 307 289 270 263 255 246 264 182 167 197 201 264 246 189 193 216 202 225 241 216 262 281 298 37 58 255 239 242 226 185 183 184 203 222 178 163 159 158 150 146 144 146
335 326 333 44 177 205 217 216 167 185 186 176 178 166 225 180 251 206 193 226 243 230 241 217 219 177 224 231 227 223 209 191 184 178 173 160 166 161 159 158 156 150 149 151
342 3 9 172 197 290 184 148 149 172 200 226 191 169 175 174 206 177 263 37 304 276 275 315 232 253 242 250 245 256 214 200 176 148 141 159 163 166 165 165 162 159 156 157
352 351 351 327 4 177 245 165 164 156 223 206 185 178 151 194 167 185 191 190 41 290 276 280 267 264 251 248 232 227 213 197 188 193 205 185 181 169 167 165 164 162 160 159
304 301 305 315 316 243 208 181 317 184 215 175 161 167 149 151 180 125 150 120 60 253 335 292 260 258 305 327 245 202 196 186 187 190 192 181 179 173 169 165 165 165 162 159
7 6 286 318 281 273 236 152 228 175 179 175 170 139 143 131 154 72 96 114 238 351 284 244 238 262 311 308 221 189 187 186 185 183 179 177 172 171 170 165 166 163 158 156
29 359 331 338 323 357 21 347 306 323 311 209 152 104 141 129 71 128 137 121 35 277 250 240 253 276 316 234 199 189 183 184 188 183 174 170 169 166 167 167 163 162 158 155
40 339 321 333 345 304 318 315 320 331 296 192 128 77 109 78 92 96 111 101 248 223 234 235 281 333 295 190 177 179 181 180 181 176 172 170 167 165 162 163 162 162 157 155
112 225 343 332 328 332 340 349 331 339 301 218 239 134 134 194 139 132 209 151 226 247 222 268 296 310 176 173 170 172 176 177 176 174 171 168 166 164 160 157 158 160 160 158
310 354 285 298 273 283 286 318 307 322 310 236 166 181 205 84 112 254 194 205 216 213 227 263 278 237 194 170 167 170 173 174 174 170 169 167 163 160 157 154 156 159 158 157